Wind_Speed
20 20 20 20 18 17 19 19 19 19 19 19 19 18 17 17 16 16 15 15 14 14 14 14 14 14 14 13 13 12 12 13 13 13 13 13 13 13 13 13 13 12 11 11 11 12 12 12 11 12 12 12 13 13 14 15 15 16 16 17 17 17 16
22 22 22 20 18 18 19 19 20 20 20 20 19 18 17 16 15 15 14 14 14 14 14 15 15 15 15 14 13 13 13 13 14 14 14 14 13 13 13 13 12 12 12 12 12 12 12 11 11 11 12 12 13 14 14 15 16 16 17 17 18 18 17
25 24 24 22 20 20 20 20 20 21 21 20 19 18 16 14 13 12 12 12 13 13 14 14 15 15 14 14 13 13 13 14 15 15 15 15 14 14 13 12 12 12 12 13 13 12 12 12 11 11 12 12 13 14 14 15 16 17 17 18 18 18 17
28 29 26 23 22 21 21 21 22 22 21 20 18 16 14 12 11 10 10 11 12 13 13 14 14 14 14 14 14 14 14 15 15 16 16 15 15 14 13 13 13 13 13 13 14 13 13 12 12 12 12 13 13 14 14 15 16 17 18 19 19 19 18
25 27 24 23 22 22 22 23 23 22 21 20 18 16 13 11 11 10 10 11 11 12 13 14 15 15 15 15 15 15 15 15 15 15 15 15 15 15 14 14 14 15 15 15 15 15 14 13 13 14 14 14 14 14 15 16 17 18 19 19 20 19 19
19 20 20 21 22 23 23 22 22 21 21 21 19 17 15 13 13 12 12 11 12 12 13 14 15 16 16 16 15 15 15 15 15 15 15 15 15 15 16 16 16 16 16 16 16 16 16 15 15 15 15 15 15 15 15 16 17 18 19 20 20 20 21
17 19 21 22 22 22 21 21 21 21 21 21 20 19 18 16 15 14 13 12 12 12 12 13 14 15 16 16 15 15 15 15 15 15 15 15 16 16 17 17 17 17 18 18 18 18 17 16 16 16 16 16 16 15 16 17 17 18 19 20 20 21 21
16 19 20 20 20 20 19 20 20 19 19 19 20 19 17 16 15 15 14 13 12 11 11 12 13 14 15 15 15 14 13 14 14 14 15 15 16 16 17 17 17 18 18 19 19 18 18 17 17 17 17 17 16 16 16 16 17 18 19 20 21 21 22
15 17 19 19 20 20 19 19 18 17 18 19 18 17 16 16 15 15 14 13 12 12 12 12 13 14 15 15 14 13 12 12 12 12 13 14 14 15 16 16 17 17 18 19 19 19 18 18 18 18 18 17 16 16 16 16 17 18 19 20 21 22 22
17 18 19 19 20 20 19 19 18 18 18 18 17 16 15 15 15 14 14 13 12 12 13 13 13 14 15 15 14 14 13 12 12 12 12 12 13 13 14 15 16 17 18 19 19 19 19 19 19 19 19 18 17 17 17 17 17 19 20 20 21 22 22
18 18 19 19 20 20 20 19 19 18 18 17 16 14 14 15 15 14 12 11 11 12 13 14 14 14 15 15 15 15 14 13 12 12 12 12 12 13 14 15 16 17 18 20 20 20 19 19 20 20 20 19 18 18 17 18 18 19 20 20 22 22 23
17 16 17 19 20 20 20 19 19 18 17 16 15 14 15 16 15 14 12 12 12 12 13 14 15 15 15 16 16 16 16 15 14 14 13 13 13 14 14 15 16 18 19 20 21 21 20 20 20 21 20 20 19 19 19 19 19 20 20 21 23 23 23
16 15 16 18 19 18 18 18 17 16 16 16 16 16 17 17 17 16 15 15 14 14 14 15 16 16 16 16 17 18 18 17 17 16 15 15 15 15 15 16 17 18 20 21 21 21 20 20 20 20 20 20 19 19 19 20 20 21 21 22 24 24 24
17 17 17 18 18 17 17 16 16 15 15 15 16 17 18 18 18 18 18 18 16 15 14 15 15 17 17 18 18 19 19 19 19 18 17 16 16 16 16 16 17 19 20 20 21 20 20 19 20 20 20 19 20 20 20 21 21 22 22 24 25 25 24
18 18 18 18 18 18 17 17 16 15 13 12 12 13 14 15 16 16 17 17 15 15 14 13 13 15 18 19 19 19 20 20 20 19 18 17 17 17 18 18 18 18 19 20 20 20 19 19 19 19 19 20 20 21 21 21 22 23 24 25 26 25 25
21 20 19 19 19 18 17 16 16 14 13 11 10 10 11 12 13 14 15 15 14 15 16 15 14 14 15 17 19 20 20 21 21 20 19 19 19 19 19 19 20 20 20 20 20 20 20 19 19 19 20 20 21 21 21 22 22 23 24 25 26 26 25
24 22 21 20 19 18 17 16 15 14 13 11 10 11 12 13 14 15 15 15 14 16 17 17 16 15 14 15 17 20 21 21 21 21 20 20 20 20 20 21 21 21 21 21 21 20 20 20 20 20 20 21 21 21 21 21 22 23 24 24 25 25 26
25 24 23 21 19 18 17 17 16 15 14 12 12 13 13 14 15 16 16 15 16 18 18 17 18 17 14 13 15 19 21 21 22 23 23 21 20 19 20 21 21 21 21 21 21 21 21 21 21 22 21 21 21 21 21 22 22 23 24 24 24 25 25
24 25 25 22 20 18 18 18 18 16 15 14 13 13 14 15 16 16 16 16 18 20 20 19 19 16 14 12 14 18 21 22 22 23 24 22 19 18 19 20 21 22 22 22 22 21 21 22 22 22 22 22 22 22 22 23 23 24 24 25 25 25 25
25 26 25 23 20 18 17 17 17 16 15 14 13 14 15 16 15 15 16 17 19 21 21 20 19 16 13 12 14 17 20 21 22 23 24 23 20 19 19 19 20 22 22 22 22 23 23 23 23 23 23 23 23 23 23 23 24 24 25 25 25 25 25
28 28 25 23 21 18 17 17 15 14 14 13 14 15 15 14 14 15 16 17 19 19 19 18 18 16 14 12 14 17 19 20 22 23 23 23 21 20 19 19 20 21 22 23 23 23 23 24 24 24 24 24 24 24 23 23 23 23 23 24 24 24 25
28 30 26 23 21 19 17 16 15 14 14 14 14 14 14 15 15 15 15 15 16 17 18 18 18 17 15 14 15 17 18 20 21 22 23 22 21 20 20 20 20 20 21 22 23 23 23 23 23 23 23 22 22 22 22 22 23 23 23 23 24 24 26
22 27 27 24 23 21 18 16 15 15 14 14 13 14 14 14 14 14 13 12 12 14 17 18 18 16 15 14 14 14 15 17 18 20 21 21 21 21 21 21 21 21 21 21 21 21 21 21 21 21 21 21 21 21 22 23 23 24 24 24 25 26 27
15 20 24 24 24 23 20 17 15 14 14 14 13 12 12 11 11 11 11 9 9 10 12 14 13 12 12 11 11 12 13 15 17 18 19 19 20 21 21 22 22 21 21 20 20 21 21 21 21 20 21 21 22 22 22 23 23 24 25 25 26 27 28
14 16 20 21 22 22 21 19 17 15 15 15 14 13 13 13 12 12 10 10 9 10 11 11 11 11 11 11 11 12 13 16 17 18 18 18 19 20 20 20 21 21 21 21 21 21 22 22 22 21 21 21 22 23 23 23 24 25 25 26 27 28 28
17 17 18 19 20 20 20 19 18 17 16 16 16 16 16 16 16 15 14 13 13 13 14 14 14 14 14 13 13 13 15 17 18 18 19 19 18 18 19 19 20 21 22 22 22 23 23 23 23 23 23 23 24 24 25 25 25 26 27 27 28 28 29
20 20 19 19 20 21 20 20 19 19 18 18 18 18 19 19 18 17 17 17 17 17 17 17 17 16 15 15 15 15 16 17 19 19 20 21 21 21 20 21 21 22 23 24 25 25 25 25 25 25 25 25 27 27 27 27 28 28 29 29 30 31 32
21 21 21 21 21 22 23 23 22 21 21 21 21 21 22 22 21 20 20 20 20 20 19 19 19 19 19 20 20 19 19 20 22 23 24 24 24 25 24 24 25 25 26 27 27 28 28 28 28 27 25 26 29 31 31 31 31 31 31 32 32 33 35
23 23 23 23 23 24 25 24 23 23 23 23 24 24 25 26 25 23 23 23 23 23 21 21 22 22 23 25 25 24 23 24 25 26 27 27 27 27 28 28 28 29 30 31 31 31 31 31 31 31 29 29 32 35 36 35 34 34 35 35 36 37 38
26 26 26 26 26 26 26 26 24 24 25 26 26 27 28 28 28 27 26 26 25 24 23 23 24 25 26 28 29 28 28 28 29 30 31 31 31 31 31 32 33 33 34 34 34 35 35 35 35 36 35 34 36 37 37 37 37 37 38 38 39 40 41
30 30 30 30 30 30 30 29 29 29 29 30 30 30 30 30 30 30 30 29 27 26 26 27 27 26 27 29 30 30 30 30 30 31 33 34 35 35 36 36 36 37 37 36 36 36 37 38 39 40 40 39 39 39 38 39 39 40 41 41 42 43 44
34 34 34 34 33 33 33 33 33 33 33 33 33 32 32 32 33 33 33 33 30 29 29 31 30 29 29 29 30 31 32 33 33 33 33 36 37 38 38 38 38 39 39 39 39 40 41 42 43 43 43 43 42 41 41 42 42 42 43 43 44 46 47
38 37 37 37 36 36 36 37 37 37 37 37 36 35 34 35 35 35 35 35 34 32 32 32 32 32 32 33 33 34 36 37 36 35 35 36 38 39 40 41 41 42 42 44 46 47 47 47 46 46 46 46 45 45 45 45 45 44 44 44 46 48 49
39 39 39 39 39 39 38 38 37 37 37 37 37 36 36 36 36 37 37 37 37 37 35 34 34 34 35 35 37 39 41 39 37 37 38 38 39 41 44 46 47 47 46 46 47 49 49 49 49 49 49 49 49 49 48 47 47 46 46 46 47 49 50
37 37 37 37 37 37 36 36 36 37 37 37 37 37 37 36 36 38 40 40 40 40 39 38 37 37 38 39 40 42 44 44 44 44 44 43 43 44 46 48 48 46 45 45 46 47 48 48 49 50 51 52 52 51 50 48 48 48 48 48 49 50 50
35 35 35 36 37 38 39 40 42 42 42 42 42 42 42 41 41 43 44 44 44 44 44 42 42 42 42 43 43 45 47 50 51 52 51 50 49 46 46 49 51 49 47 47 47 47 47 48 49 50 50 51 51 51 50 50 50 50 49 49 50 50 50
38 39 40 41 43 45 46 46 47 46 46 46 46 46 46 46 47 48 48 48 48 47 46 46 46 46 46 47 47 48 49 51 53 55 55 55 54 49 44 46 50 50 48 48 48 47 48 49 49 50 50 51 51 51 51 51 51 50 50 50 51 52 53
Wind_Direction
227 227 227 224 218 209 206 207 206 205 205 206 207 206 207 208 210 212 214 217 219 222 226 228 230 234 238 240 243 247 250 250 250 249 246 245 245 243 244 248 251 251 250 248 247 249 251 254 257 259 260 262 265 267 267 267 268 268 268 268 268 271 273
229 228 226 220 211 206 205 203 203 204 206 207 207 207 208 211 213 215 217 220 223 225 226 228 229 231 234 236 239 243 247 250 252 252 251 249 246 244 242 244 249 252 252 252 251 252 252 254 257 260 261 262 263 264 266 268 270 272 273 273 275 276 277
229 225 221 214 206 205 205 203 203 205 206 206 206 206 206 210 215 218 221 224 227 228 230 231 232 233 235 238 241 244 247 251 252 252 253 252 250 247 243 243 247 251 252 253 254 254 255 256 258 260 261 263 264 266 268 270 272 274 275 276 277 277 277
228 220 214 208 204 205 207 207 207 208 206 205 204 202 201 207 215 220 226 230 232 233 234 236 238 239 239 240 243 245 248 250 251 251 252 253 252 250 247 244 246 249 251 253 255 256 257 258 259 260 260 262 265 267 269 270 271 273 274 275 276 276 276
222 213 210 210 209 209 210 211 212 212 208 205 205 205 207 216 226 232 235 238 239 238 239 239 240 241 241 242 244 247 249 249 250 251 252 253 254 254 254 253 253 254 254 255 256 257 258 259 259 260 261 262 265 268 270 270 270 270 271 273 274 275 274
219 219 224 224 221 218 216 215 216 217 215 212 215 221 228 236 242 245 245 244 242 241 241 241 240 241 241 242 244 247 249 250 250 250 250 251 254 257 261 264 265 264 263 261 260 259 259 258 258 258 259 260 263 266 267 268 268 269 270 271 272 272 273
234 237 238 233 227 224 221 219 218 221 221 221 226 233 240 247 249 249 248 246 245 244 243 242 240 240 240 241 243 246 249 250 251 252 253 253 256 260 264 267 270 271 271 270 267 264 262 260 259 257 257 257 258 260 261 262 265 267 268 269 269 270 271
243 239 235 231 226 222 220 218 218 222 225 228 234 239 244 249 248 247 248 251 255 255 252 248 244 241 241 242 244 245 249 251 253 255 256 257 259 262 265 268 271 272 272 272 270 268 265 263 261 258 256 256 256 258 259 261 264 266 267 268 269 270 271
244 238 233 227 223 221 219 219 221 224 229 235 241 245 249 250 247 246 252 260 264 263 257 251 246 242 241 243 244 244 247 250 253 256 257 259 260 263 265 268 269 270 269 268 268 266 265 264 263 261 259 259 259 261 262 264 266 267 268 269 270 270 271
242 238 236 231 228 226 224 224 226 229 234 239 244 249 248 244 244 248 257 265 267 264 258 252 247 243 241 242 243 244 245 247 250 253 256 259 261 263 265 266 266 267 266 266 265 264 264 263 262 261 261 261 261 263 264 266 267 268 268 269 270 270 270
239 240 240 238 236 234 233 233 234 235 239 243 247 248 242 238 240 246 254 260 261 260 257 254 251 247 244 244 245 246 247 248 249 251 254 257 260 262 264 265 265 265 265 265 265 264 263 262 260 260 259 260 260 261 262 263 264 265 267 268 268 268 269
235 244 246 246 245 243 242 241 241 241 242 243 246 243 237 237 239 245 254 259 259 257 255 253 252 252 250 248 248 249 250 251 252 253 255 257 261 263 265 265 264 263 263 264 264 264 263 261 259 258 257 257 258 258 258 258 260 262 264 266 267 268 270
231 238 245 249 248 247 247 246 245 244 243 243 243 240 237 239 244 252 262 264 261 260 259 256 254 254 255 253 251 251 251 253 255 256 258 260 263 265 266 267 265 264 263 264 264 263 261 260 258 257 256 255 256 256 257 258 260 262 264 265 267 269 271
235 234 237 242 243 242 243 243 242 242 244 246 245 244 244 248 253 261 266 266 262 260 262 262 259 256 256 256 256 254 252 254 255 256 258 259 260 262 262 263 262 262 263 264 263 261 258 256 255 254 253 252 253 254 256 258 261 263 264 265 267 269 270
239 236 239 240 240 240 238 237 238 240 244 244 240 241 244 249 255 259 263 264 260 253 250 254 259 259 257 257 258 258 255 254 253 253 253 254 255 255 255 255 254 254 256 258 259 257 254 251 251 252 252 252 253 254 255 258 260 261 263 263 265 267 267
239 241 243 241 242 243 242 242 242 242 243 241 238 242 247 251 255 257 260 263 258 250 247 247 252 257 259 259 259 259 258 256 255 254 253 253 252 252 252 251 249 247 246 248 249 249 247 246 246 246 246 248 250 252 253 256 258 260 261 262 262 263 263
243 244 244 241 241 243 247 249 249 248 248 252 259 263 263 265 266 267 267 264 260 257 255 253 253 253 255 257 258 259 260 259 259 258 257 254 252 250 249 248 247 245 243 242 241 241 241 242 243 244 245 245 246 248 250 253 256 258 259 261 261 261 261
244 243 243 243 241 242 248 251 250 250 255 262 267 265 267 271 271 270 267 257 250 252 254 255 256 253 252 256 258 258 258 257 257 257 256 254 250 247 246 246 245 243 241 239 237 236 236 239 242 245 247 248 249 250 251 253 255 256 258 259 260 261 262
242 241 242 243 240 241 246 247 247 250 255 258 259 262 269 274 274 272 266 252 246 249 253 256 257 254 253 260 262 258 255 253 252 253 254 251 246 242 242 243 244 243 241 239 236 234 235 238 242 247 250 254 256 257 257 258 258 259 260 261 262 263 265
239 239 239 240 240 241 242 240 241 245 248 249 253 262 270 273 273 273 267 258 253 252 253 257 257 253 252 259 262 258 253 250 251 252 252 250 245 241 239 240 242 244 243 240 238 236 236 238 242 247 252 256 258 260 261 263 264 265 265 266 266 266 267
238 238 237 237 237 241 241 235 233 239 243 243 248 257 263 266 269 272 270 266 260 253 251 256 257 253 251 253 255 256 253 252 252 252 250 248 246 243 241 239 239 241 242 241 239 238 238 239 242 246 250 253 256 259 261 263 265 265 266 266 266 267 268
242 236 234 237 239 236 232 229 229 234 238 237 243 253 261 266 270 271 269 268 263 252 245 249 253 253 252 251 250 252 253 252 252 251 250 248 246 244 243 241 239 238 239 239 239 239 240 241 243 246 248 251 254 256 258 260 260 261 262 264 265 267 268
249 235 231 240 243 232 225 230 235 235 232 234 243 253 260 265 268 268 268 268 266 255 248 248 250 250 250 248 246 248 249 250 251 252 251 250 247 246 246 245 241 236 234 236 239 241 242 243 246 249 250 251 253 255 256 257 258 259 261 263 265 266 267
245 231 229 237 239 232 230 234 234 230 229 235 242 247 251 257 262 268 271 270 268 262 255 251 247 244 242 237 235 236 240 245 247 249 250 250 248 247 248 248 245 242 239 238 240 243 247 252 255 256 255 254 254 256 258 259 259 260 261 262 262 263 265
229 226 228 232 233 233 235 233 226 223 227 233 239 244 247 250 255 259 263 265 266 263 257 249 241 239 237 230 226 228 232 237 241 244 247 247 246 246 246 246 246 247 246 244 242 244 250 256 260 262 261 260 261 261 263 264 264 264 264 264 264 264 264
227 228 231 231 231 233 233 228 226 228 230 233 240 247 250 251 253 255 257 260 261 261 260 254 247 244 242 236 232 231 232 235 239 242 245 247 247 246 244 243 242 242 243 243 243 244 248 252 258 261 264 265 265 265 267 269 270 269 269 269 268 267 266
233 234 236 235 233 232 229 227 231 236 235 236 243 249 252 254 257 261 264 265 264 263 262 259 256 252 248 245 243 242 241 241 242 244 247 250 250 248 247 246 244 243 243 243 244 246 249 252 255 258 264 269 270 268 270 272 273 273 272 271 270 270 269
240 240 241 239 236 234 232 233 237 240 240 243 248 252 254 256 257 260 263 265 264 262 261 260 258 256 253 252 250 250 251 252 249 248 249 250 251 251 251 251 251 250 250 250 251 253 254 256 256 257 260 264 265 266 269 271 272 272 271 271 271 271 272
245 245 245 243 240 239 239 239 240 242 244 249 253 256 258 259 260 261 263 264 263 260 259 258 256 256 257 258 256 253 254 255 254 251 250 250 251 253 254 255 256 257 257 257 257 258 258 259 260 259 257 254 254 260 266 269 270 270 271 271 272 273 273
248 248 248 246 245 244 245 245 245 246 249 253 256 259 260 261 261 261 262 265 266 263 259 258 258 259 262 263 261 258 254 253 253 253 252 251 252 254 255 256 257 257 258 259 260 262 262 262 262 262 260 256 255 259 264 268 269 270 271 273 274 275 276
249 248 248 247 246 246 248 250 252 253 255 257 259 260 261 262 263 261 259 260 263 262 260 259 260 262 265 265 263 260 257 256 256 255 254 254 254 256 258 259 260 260 259 260 263 266 266 264 264 264 262 260 259 262 266 269 270 271 272 274 276 277 277
249 250 250 249 249 249 250 252 255 257 259 260 262 262 263 264 265 264 261 259 260 261 262 262 262 262 262 263 263 262 261 260 258 257 257 258 259 260 263 265 266 265 264 266 269 272 272 270 268 266 264 263 263 265 267 269 270 271 273 275 277 277 277
253 253 253 253 252 253 254 255 258 260 262 264 265 264 264 265 265 265 263 259 259 261 263 264 265 264 262 260 259 260 261 262 262 262 263 264 265 267 269 270 270 270 270 270 272 274 275 274 272 269 266 265 265 267 268 269 269 270 271 274 276 276 275
256 256 256 256 256 256 257 258 259 261 263 264 265 265 265 265 266 266 263 259 257 258 260 261 261 262 261 258 255 256 258 260 264 266 267 268 271 273 274 274 273 272 272 271 272 273 273 272 271 268 267 267 267 267 268 268 269 270 271 273 274 274 273
255 255 255 255 255 255 256 258 261 264 265 265 265 265 264 262 262 262 262 260 259 259 259 259 259 259 259 257 255 255 254 255 258 262 265 269 273 275 275 275 274 272 272 271 271 272 272 271 269 267 266 266 266 266 266 267 268 268 269 271 271 271 271
251 251 251 253 255 257 260 263 266 268 268 268 267 267 266 264 262 261 261 261 261 262 262 262 261 260 260 260 259 258 255 254 256 259 263 267 270 270 271 272 271 270 270 270 271 271 272 271 268 266 265 265 265 266 266 266 267 267 268 269 270 270 271
253 254 255 257 261 264 267 269 270 270 270 269 269 268 267 265 264 263 263 263 263 263 264 264 264 264 263 263 262 260 258 257 258 260 262 264 266 266 265 265 266 267 267 268 269 270 270 270 269 266 265 265 265 266 266 267 267 269 270 271 271 272 272
Height
5773 5774 5774 5776 5777 5777 5778 5779 5780 5781 5781 5782 5783 5784 5784 5785 5785 5786 5786 5787 5788 5789 5790 5791 5792 5793 5794 5794 5795 5795 5796 5796 5797 5798 5799 5799 5800 5800 5800 5800 5800 5801 5801 5802 5802 5803 5803 5803 5803 5804 5804 5804 5804 5804 5804 5804 5804 5804 5804 5804 5804 5804 5804
5772 5772 5773 5774 5775 5776 5777 5778 5779 5779 5780 5781 5782 5782 5783 5784 5784 5785 5786 5787 5787 5788 5789 5790 5791 5791 5792 5793 5793 5794 5794 5795 5796 5796 5797 5798 5799 5799 5799 5799 5799 5799 5800 5800 5801 5801 5801 5802 5802 5802 5802 5802 5802 5803 5803 5803 5803 5803 5803 5803 5803 5802 5803
5769 5770 5771 5772 5774 5775 5776 5777 5777 5778 5778 5779 5780 5781 5782 5783 5784 5785 5786 5786 5787 5787 5788 5789 5789 5790 5791 5791 5792 5792 5793 5794 5794 5795 5796 5797 5797 5797 5798 5798 5798 5798 5798 5799 5799 5799 5800 5800 5800 5800 5800 5800 5801 5801 5802 5802 5802 5802 5802 5802 5801 5801 5801
5767 5768 5769 5771 5772 5773 5775 5775 5776 5776 5777 5778 5779 5781 5782 5783 5784 5785 5785 5786 5786 5787 5787 5788 5788 5788 5789 5790 5790 5791 5792 5793 5793 5794 5795 5795 5796 5796 5796 5797 5797 5797 5797 5797 5797 5798 5798 5799 5799 5799 5799 5799 5799 5800 5800 5801 5801 5801 5801 5801 5800 5800 5800
5766 5767 5768 5770 5771 5772 5773 5774 5775 5776 5777 5778 5779 5780 5781 5782 5783 5784 5784 5785 5785 5786 5786 5786 5787 5787 5787 5788 5789 5790 5790 5791 5792 5793 5794 5794 5794 5794 5795 5795 5796 5796 5796 5796 5796 5796 5797 5797 5797 5797 5797 5798 5798 5798 5798 5799 5799 5800 5800 5800 5800 5799 5799
5766 5767 5768 5769 5770 5771 5772 5773 5774 5775 5776 5778 5779 5779 5780 5781 5782 5783 5784 5784 5785 5785 5785 5785 5785 5786 5786 5787 5787 5788 5789 5790 5790 5791 5792 5793 5793 5793 5793 5794 5794 5794 5794 5794 5794 5795 5795 5796 5796 5796 5796 5796 5796 5796 5797 5797 5798 5798 5798 5799 5799 5798 5798
5765 5767 5767 5768 5769 5770 5771 5772 5773 5774 5775 5777 5778 5778 5779 5780 5781 5782 5783 5783 5784 5784 5784 5784 5784 5784 5785 5785 5786 5786 5787 5788 5788 5789 5790 5791 5791 5791 5792 5792 5792 5792 5792 5792 5793 5793 5793 5794 5795 5795 5795 5794 5794 5795 5795 5795 5796 5796 5797 5797 5797 5797 5797
5765 5766 5766 5766 5767 5768 5770 5771 5772 5772 5774 5775 5776 5777 5778 5779 5780 5781 5782 5782 5782 5782 5782 5783 5783 5783 5783 5784 5784 5784 5785 5786 5786 5787 5788 5788 5789 5789 5790 5790 5790 5790 5790 5790 5791 5791 5792 5792 5793 5793 5793 5793 5793 5793 5793 5793 5794 5794 5795 5795 5795 5795 5795
5764 5764 5765 5765 5766 5767 5768 5769 5770 5771 5772 5773 5774 5775 5777 5777 5779 5779 5780 5781 5781 5781 5781 5781 5781 5782 5782 5782 5782 5783 5783 5784 5785 5785 5786 5786 5787 5787 5788 5788 5788 5788 5788 5789 5789 5789 5790 5791 5791 5791 5791 5791 5791 5791 5791 5792 5792 5792 5793 5793 5793 5793 5793
5762 5763 5763 5764 5765 5766 5767 5768 5769 5770 5771 5772 5772 5774 5775 5776 5777 5778 5779 5780 5780 5780 5780 5780 5780 5780 5780 5780 5781 5781 5782 5782 5783 5783 5783 5784 5785 5785 5786 5786 5786 5786 5786 5787 5787 5787 5788 5789 5789 5789 5789 5789 5789 5789 5789 5790 5790 5791 5791 5791 5791 5791 5791
5760 5761 5762 5763 5764 5765 5766 5767 5768 5769 5770 5770 5771 5772 5773 5774 5776 5777 5778 5778 5778 5778 5778 5778 5778 5778 5778 5779 5779 5779 5780 5781 5781 5781 5782 5782 5782 5783 5783 5784 5784 5784 5785 5785 5785 5786 5787 5787 5787 5787 5787 5787 5787 5787 5788 5788 5788 5789 5789 5789 5789 5789 5789
5758 5760 5762 5763 5763 5764 5765 5766 5767 5768 5768 5769 5770 5771 5772 5773 5774 5775 5775 5776 5776 5776 5776 5776 5776 5776 5777 5777 5778 5778 5778 5779 5779 5779 5780 5780 5781 5781 5782 5782 5782 5782 5783 5783 5783 5784 5785 5785 5785 5785 5785 5785 5785 5785 5786 5786 5786 5787 5787 5787 5787 5787 5787
5757 5759 5760 5761 5762 5763 5764 5765 5766 5766 5767 5767 5768 5769 5770 5771 5772 5773 5773 5774 5774 5774 5774 5774 5775 5775 5775 5775 5776 5776 5777 5777 5777 5777 5778 5778 5779 5779 5780 5780 5780 5780 5781 5781 5782 5782 5783 5783 5783 5783 5783 5783 5783 5783 5784 5784 5784 5785 5785 5785 5785 5785 5785
5755 5756 5758 5759 5760 5761 5762 5763 5764 5765 5765 5766 5766 5767 5768 5769 5770 5770 5770 5771 5771 5772 5772 5772 5773 5773 5773 5773 5774 5774 5775 5776 5776 5776 5776 5777 5777 5778 5778 5778 5779 5778 5779 5779 5780 5780 5781 5781 5781 5781 5782 5782 5782 5782 5782 5782 5783 5783 5783 5783 5783 5783 5783
5752 5754 5755 5756 5757 5758 5759 5760 5761 5762 5763 5764 5764 5765 5766 5767 5767 5767 5767 5768 5768 5769 5769 5769 5770 5770 5771 5771 5772 5772 5773 5774 5774 5775 5775 5775 5775 5776 5776 5776 5777 5777 5777 5777 5777 5778 5779 5779 5779 5779 5780 5780 5780 5780 5780 5780 5781 5781 5781 5781 5781 5781 5781
5750 5751 5752 5753 5755 5756 5757 5758 5759 5760 5761 5761 5762 5763 5763 5764 5764 5764 5764 5764 5765 5765 5765 5766 5766 5767 5767 5768 5769 5770 5770 5771 5772 5773 5773 5773 5773 5774 5774 5774 5774 5774 5775 5775 5775 5775 5776 5776 5777 5777 5777 5778 5778 5778 5778 5778 5779 5779 5779 5779 5779 5779 5778
5747 5749 5750 5751 5752 5754 5754 5755 5756 5757 5758 5759 5760 5760 5761 5761 5761 5762 5762 5762 5762 5762 5762 5763 5763 5764 5764 5765 5766 5767 5768 5769 5770 5770 5771 5771 5771 5772 5772 5772 5772 5772 5772 5773 5773 5773 5773 5773 5774 5774 5775 5775 5775 5776 5776 5776 5776 5777 5777 5777 5776 5776 5776
5745 5746 5747 5749 5750 5751 5752 5753 5754 5755 5756 5756 5757 5757 5758 5758 5759 5759 5759 5759 5759 5759 5759 5760 5760 5761 5761 5762 5763 5764 5765 5766 5767 5767 5768 5768 5769 5769 5770 5770 5770 5770 5770 5770 5770 5771 5771 5771 5771 5772 5772 5772 5773 5773 5773 5773 5774 5774 5774 5774 5774 5774 5774
5743 5744 5745 5746 5747 5749 5750 5751 5751 5753 5753 5754 5754 5755 5755 5756 5756 5756 5756 5756 5756 5756 5756 5757 5758 5758 5758 5759 5759 5760 5762 5763 5764 5764 5765 5765 5766 5767 5767 5768 5767 5767 5767 5768 5768 5768 5768 5768 5769 5769 5769 5770 5770 5770 5771 5771 5771 5771 5771 5771 5771 5771 5771
5739 5740 5742 5744 5745 5747 5748 5749 5749 5750 5750 5751 5752 5752 5753 5753 5753 5753 5753 5753 5753 5753 5754 5755 5755 5755 5755 5756 5756 5757 5758 5759 5760 5761 5762 5763 5763 5764 5765 5765 5765 5765 5765 5766 5766 5766 5766 5766 5767 5767 5767 5767 5768 5768 5768 5768 5768 5768 5767 5767 5767 5768 5768
5736 5737 5739 5741 5743 5745 5746 5746 5746 5747 5748 5748 5749 5749 5750 5750 5750 5750 5750 5750 5751 5751 5751 5752 5752 5752 5752 5753 5753 5754 5755 5756 5757 5758 5759 5760 5760 5761 5761 5762 5762 5763 5763 5763 5764 5764 5764 5764 5765 5765 5765 5765 5765 5765 5765 5765 5765 5764 5764 5764 5764 5764 5764
5733 5734 5736 5738 5740 5742 5742 5743 5743 5744 5745 5746 5746 5746 5747 5747 5747 5748 5748 5747 5748 5748 5749 5749 5749 5749 5750 5750 5750 5751 5752 5753 5754 5755 5756 5756 5757 5758 5758 5759 5759 5760 5760 5761 5761 5761 5762 5762 5762 5762 5763 5763 5763 5763 5763 5762 5762 5762 5762 5761 5761 5761 5761
5730 5731 5734 5735 5736 5738 5739 5740 5740 5741 5742 5743 5743 5744 5744 5745 5745 5745 5745 5745 5745 5745 5746 5746 5746 5746 5747 5747 5748 5749 5749 5750 5751 5752 5753 5754 5754 5755 5755 5755 5756 5756 5757 5758 5758 5759 5759 5759 5760 5760 5760 5760 5760 5760 5760 5760 5760 5759 5759 5759 5758 5758 5758
5728 5730 5732 5733 5733 5734 5736 5737 5738 5738 5739 5740 5741 5741 5742 5743 5743 5743 5743 5743 5742 5743 5743 5744 5744 5744 5745 5745 5746 5746 5747 5747 5748 5749 5750 5750 5751 5751 5752 5752 5753 5754 5754 5755 5756 5756 5756 5757 5757 5757 5757 5756 5757 5757 5757 5757 5757 5756 5756 5756 5756 5755 5755
5726 5728 5729 5730 5731 5732 5733 5735 5735 5736 5736 5737 5738 5739 5740 5740 5741 5741 5741 5741 5740 5741 5741 5742 5742 5742 5743 5743 5743 5744 5745 5745 5746 5746 5746 5747 5747 5748 5748 5749 5749 5750 5751 5752 5752 5753 5753 5753 5753 5753 5753 5752 5752 5752 5752 5753 5753 5753 5752 5752 5752 5752 5752
5725 5726 5727 5728 5729 5730 5732 5732 5733 5733 5734 5735 5736 5737 5738 5738 5738 5738 5738 5738 5739 5739 5740 5740 5740 5741 5741 5741 5741 5742 5742 5743 5744 5744 5744 5744 5745 5745 5745 5745 5746 5746 5747 5748 5748 5748 5748 5748 5749 5748 5748 5748 5748 5748 5748 5748 5748 5748 5748 5748 5748 5747 5747
5723 5724 5725 5726 5727 5729 5729 5730 5730 5731 5732 5733 5734 5735 5735 5736 5736 5736 5736 5736 5736 5737 5738 5738 5739 5740 5740 5740 5740 5740 5741 5741 5742 5742 5742 5742 5742 5742 5742 5742 5742 5743 5743 5744 5744 5744 5744 5744 5744 5745 5744 5744 5743 5743 5744 5744 5744 5744 5743 5743 5743 5743 5743
5721 5722 5723 5724 5726 5726 5727 5727 5727 5728 5729 5730 5731 5732 5732 5732 5732 5732 5733 5733 5734 5734 5735 5736 5737 5738 5738 5738 5738 5738 5738 5739 5739 5739 5739 5739 5739 5739 5740 5740 5739 5739 5739 5739 5740 5740 5740 5740 5740 5740 5741 5740 5740 5739 5739 5739 5739 5739 5738 5738 5738 5738 5738
5719 5720 5721 5722 5723 5724 5724 5724 5725 5726 5726 5727 5728 5728 5728 5728 5729 5729 5730 5730 5730 5731 5731 5732 5734 5734 5735 5735 5734 5735 5736 5736 5736 5736 5736 5736 5736 5736 5736 5736 5736 5736 5736 5735 5735 5735 5736 5736 5736 5736 5736 5737 5736 5735 5734 5734 5734 5734 5733 5733 5733 5733 5732
5716 5717 5718 5719 5719 5720 5721 5721 5722 5723 5723 5724 5724 5724 5724 5725 5725 5726 5726 5727 5727 5728 5728 5728 5729 5730 5731 5731 5731 5731 5732 5732 5732 5732 5732 5732 5732 5732 5732 5732 5732 5731 5731 5731 5731 5731 5731 5731 5731 5731 5731 5731 5731 5730 5729 5729 5729 5728 5728 5728 5727 5727 5726
5712 5713 5714 5715 5716 5716 5717 5718 5718 5719 5719 5720 5720 5721 5721 5721 5721 5722 5723 5723 5724 5724 5724 5724 5726 5727 5727 5727 5726 5727 5727 5727 5727 5727 5727 5727 5727 5727 5727 5727 5727 5727 5726 5726 5726 5726 5726 5726 5726 5726 5725 5725 5725 5724 5723 5723 5722 5722 5722 5721 5721 5721 5720
5708 5709 5710 5711 5711 5712 5713 5713 5714 5714 5715 5715 5716 5717 5717 5717 5717 5718 5719 5720 5720 5720 5720 5720 5721 5723 5723 5723 5722 5722 5723 5723 5723 5723 5723 5723 5722 5721 5721 5721 5722 5722 5722 5722 5721 5721 5721 5721 5720 5720 5720 5719 5718 5718 5717 5717 5716 5716 5715 5715 5715 5715 5714
5704 5705 5705 5706 5707 5708 5708 5708 5709 5709 5710 5710 5711 5712 5712 5712 5712 5713 5714 5715 5715 5715 5715 5714 5715 5717 5718 5718 5718 5718 5718 5718 5718 5718 5718 5718 5717 5717 5716 5716 5716 5717 5717 5717 5716 5715 5715 5715 5714 5714 5713 5713 5712 5712 5711 5711 5710 5710 5709 5709 5709 5708 5707
5699 5700 5701 5702 5703 5703 5703 5704 5704 5704 5705 5705 5706 5707 5707 5708 5708 5708 5708 5709 5709 5709 5708 5708 5709 5709 5710 5712 5713 5713 5713 5713 5713 5712 5711 5711 5711 5711 5711 5710 5710 5710 5709 5709 5709 5708 5708 5708 5707 5707 5707 5706 5706 5705 5705 5704 5704 5703 5703 5702 5702 5701 5701
5695 5696 5696 5697 5698 5698 5699 5699 5699 5699 5699 5700 5701 5701 5702 5703 5703 5702 5701 5702 5702 5702 5702 5701 5701 5702 5703 5704 5705 5707 5708 5707 5706 5705 5705 5705 5705 5706 5705 5703 5702 5702 5702 5701 5701 5701 5701 5701 5700 5700 5699 5699 5699 5699 5698 5698 5697 5697 5696 5695 5695 5694 5694
5691 5692 5692 5693 5693 5693 5694 5694 5694 5694 5694 5694 5695 5696 5696 5697 5697 5696 5695 5695 5695 5695 5695 5695 5695 5695 5696 5697 5698 5699 5700 5700 5699 5699 5700 5699 5698 5699 5700 5697 5694 5694 5694 5694 5694 5694 5693 5693 5693 5692 5692 5692 5692 5692 5692 5691 5691 5690 5689 5689 5688 5688 5687
5686 5687 5687 5687 5688 5688 5688 5688 5688 5688 5688 5688 5688 5689 5689 5689 5689 5689 5688 5688 5688 5688 5687 5687 5687 5688 5689 5689 5690 5690 5691 5692 5692 5692 5693 5692 5691 5692 5693 5690 5687 5686 5686 5686 5686 5686 5686 5686 5686 5686 5685 5685 5685 5685 5685 5684 5684 5683 5682 5682 5681 5681 5680